Regional Weather Roundup
Issued by NWS

Home | Current Version | Previous Version | Graphics & Text | Print | Product List | Glossary On
Versions: 1 2 3 4 5 6 7 8 9 10 11 12 13 14 15 16 17 18 19 20 21 22 23 24 25 26 27 28 29 30 31 32 33 34 35 36 37 38 39 40 41 42 43 44 45 46 47 48 49 50
631
ASUS43 KOAX 040310
RWRNE

WEATHER ROUNDUP FOR NEBRASKA
NATIONAL WEATHER SERVICE OMAHA NE
900 PM CST SAT DEC 03 2016

NOTES: SATELLITE DATA IS BEING USED TO AUGMENT CLOUD COVER ABOVE
       12000 FEET.
       "FAIR" INDICATES FEW OR NO CLOUDS BELOW 12,000 FEET WITH NO
       SIGNIFICANT WEATHER AND/OR OBSTRUCTIONS TO VISIBILITY.

  * THESE STATIONS DO NOT REPORT WEATHER SUCH AS RAIN...SNOW OR FOG.

NEZ001>004-019>022-054>056-040400-
NEBRASKA PANHANDLE

CITY           SKY/WX    TMP DP  RH WIND       PRES   REMARKS
SCOTTSBLUFF    CLEAR     30  14  51 NW8       30.00S WCI  22
ALLIANCE       CLOUDY    29  17  61 W9        29.97R WCI  20
CHADRON        PTCLDY    28  15  58 SW13      29.97S WCI  17
KIMBALL        CLEAR     30  18  60 NW16      30.01S WCI  18
SIDNEY         CLOUDY    27  14  58 NW14      30.00F WCI  16
$$

NEZ057>060-069>072-079>082-040400-
SOUTHWEST NEBRASKA

CITY           SKY/WX    TMP DP  RH WIND       PRES   REMARKS
NORTH PLATTE   PTCLDY    33  29  85 S5        30.00R WCI  29
IMPERIAL       CLEAR     30  16  56 NW7       30.01R WCI  23
LEXINGTON      CLOUDY    32  31  95 S6        30.02S WCI  27
MCCOOK         CLOUDY    35  32  88 SW7       30.02S WCI  29
OGALLALA       CLOUDY    32  17  53 NW5       30.00R WCI  27
$$

NEZ005>010-023>029-035>040-094-040400-
NORTH CENTRAL NEBRASKA

CITY           SKY/WX    TMP DP  RH WIND       PRES   REMARKS
VALENTINE      PTCLDY    26  19  74 SW8       29.94S WCI  18
AINSWORTH      PTCLDY    28  18  65 W9        29.95S WCI  20
BROKEN BOW     CLOUDY    34  31  88 S13       30.00R WCI  25
O`NEILL        MOCLDY    33  32  95 S13       29.98F WCI  24
ORD            CLOUDY    33  29  85 S9        30.02S WCI  25
THEDFORD       PTCLDY    30  16  54 S5        29.96F WCI  26
$$

NEZ041-046>049-061>064-073>077-083>087-040400-
SOUTH CENTRAL NEBRASKA

CITY           SKY/WX    TMP DP  RH WIND       PRES   REMARKS
GRAND ISLAND   CLOUDY    32  32 100 S9        30.05F FOG     WCI  24
AURORA         CLOUDY    32  32 100 S5        30.05F WCI  27
HASTINGS       CLOUDY    32  32 100 S6        30.06F FOG     WCI  26
HEBRON         LGT SNOW  32  32 100 CALM      30.07F
HOLDREGE       CLOUDY    32  31  96 S7        30.03S WCI  26
KEARNEY *      CLOUDY    32  28  86 SW8       30.04S WCI  25
YORK           CLOUDY    32  32 100 CALM      30.07S
$$

NEZ011>018-030>034-042>045-040400-
NORTHEAST NEBRASKA

CITY           SKY/WX    TMP DP  RH WIND       PRES   REMARKS
NORFOLK        CLOUDY    32  30  92 S13       30.04F WCI  22
ALBION         CLOUDY    32  32  99 S9        30.04F FOG     WCI  24
BLAIR          LGT SNOW  33  33  98 E5        30.08F WCI  29
FREMONT        LGT SNOW  32  32 100 CALM      30.09F
TEKAMAH        LGT SNOW  32  32 100 CALM      30.10F VSB 1
WAYNE          CLOUDY    33  32  97 S13       30.05F WCI  24
$$

NEZ050>053-065>068-078-088>093-040400-
SOUTHEAST NEBRASKA

CITY           SKY/WX    TMP DP  RH WIND       PRES   REMARKS
LINCOLN        LGT SNOW  33  32  96 CALM      30.09F FOG
OMAHA EPPLEY   LGT SNOW  33  29  85 SE5       30.10F FOG     WCI  29
BEATRICE       LGT RAIN  34  34  98 S5        30.06F WCI  30
FALLS CITY     LGT RAIN  38  36  92 SE6       30.09F WCI  33
NEBRASKA CITY  LGT RAIN  35  35 100 SE5       30.08F WCI  31
PLATTSMOUTH    LGT SNOW  33  32  94 SE7       30.08F WCI  27
$$

NEZ044-045-051>053-067-040400-
OMAHA AREA

CITY           SKY/WX    TMP DP  RH WIND       PRES   REMARKS
OMAHA EPPLEY   LGT SNOW  33  29  85 SE5       30.10F FOG     WCI  29
BLAIR          LGT SNOW  33  33  98 E5        30.08F WCI  29
FREMONT        LGT SNOW  32  32 100 CALM      30.09F
MILLARD        LGT SNOW  33  32  95 CALM      30.09F
OFFUTT AFB     LGT SNOW  33  33 100 E6        30.09F FOG     WCI  28
PLATTSMOUTH    LGT SNOW  33  32  94 SE7       30.08F WCI  27
WAHOO          LGT SNOW  32  32  99 SE3       30.09S
$$




USA.gov is the U.S. government's official web portal to all federal, state and local government web resources and services.